| time (UTC) | temp F | wind direction | speed knots | gust knots | rain 1hr in | rain 24hr in | rain mn in | humidity % | barometer mb |
| 20260508065011 | 51 | 112 | 0.9 | 5.2 | 0.00 | 0.00 | 0.00 | 88 | 1016.4 |
| 20260508064535 | 50 | 107 | 0.9 | 5.2 | 0.00 | 0.00 | 0.00 | 89 | 1016.4 |
| 20260508064014 | 50 | 121 | 1.7 | 4.3 | 0.00 | 0.00 | 0.00 | 90 | 1016.3 |
| 20260508063513 | 50 | 94 | 1.7 | 3.5 | 0.00 | 0.00 | 0.00 | 91 | 1016.3 |
| 20260508063030 | 49 | 108 | 1.7 | 3.5 | 0.00 | 0.00 | 0.00 | 91 | 1016.3 |
| 20260508062512 | 49 | 103 | 0.9 | 5.2 | 0.00 | 0.00 | 0.00 | 91 | 1016.2 |
| 20260508062013 | 49 | 126 | 1.7 | 5.2 | 0.00 | 0.00 | 0.00 | 92 | 1016.3 |
| 20260508061529 | 48 | 111 | 1.7 | 3.5 | 0.00 | 0.00 | 0.00 | 92 | 1016.2 |
| 20260508061010 | 48 | 109 | 1.7 | 3.5 | 0.00 | 0.00 | 0.00 | 93 | 1016.2 |
| 20260508060515 | 47 | 103 | 1.7 | 3.5 | 0.00 | 0.00 | 0.00 | 93 | 1016.2 |
| 20260508060037 | 47 | 123 | 0.9 | 3.5 | 0.00 | 0.00 | 0.00 | 93 | 1016.1 |
| 20260508055511 | 47 | 153 | 1.7 | 3.5 | 0.00 | 0.00 | 0.00 | 93 | 1016.1 |
| 20260508055014 | 46 | 166 | 0.9 | 2.6 | 0.00 | 0.00 | 0.00 | 93 | 1016.1 |
| 20260508054534 | 46 | 0 | 0.0 | 1.7 | 0.00 | 0.00 | 0.00 | 93 | 1016.1 |
| 20260508054011 | 46 | 0 | 0.0 | 0.9 | 0.00 | 0.00 | 0.00 | 93 | 1016.1 |
| 20260508053510 | 46 | 0 | 0.0 | 0.0 | 0.00 | 0.00 | 0.00 | 93 | 1016.0 |
| 20260508053030 | 46 | 0 | 0.0 | 0.0 | 0.00 | 0.00 | 0.00 | 93 | 1016.0 |
| 20260508052518 | 46 | 0 | 0.0 | 0.0 | 0.00 | 0.00 | 0.00 | 93 | 1015.9 |
| 20260508052014 | 46 | 0 | 0.0 | 0.0 | 0.00 | 0.00 | 0.00 | 93 | 1016.0 |
| 20260508051529 | 45 | 0 | 0.0 | 0.0 | 0.00 | 0.00 | 0.00 | 93 | 1016.0 |
| 20260508051010 | 45 | 0 | 0.0 | 0.0 | 0.00 | 0.00 | 0.00 | 93 | 1016.1 |
| 20260508050512 | 45 | 0 | 0.0 | 0.0 | 0.00 | 0.00 | 0.00 | 93 | 1016.0 |
| 20260508050032 | 45 | 0 | 0.0 | 0.0 | 0.00 | 0.00 | 0.00 | 92 | 1015.9 |
| 20260508045511 | 45 | 0 | 0.0 | 0.0 | 0.00 | 0.00 | 0.00 | 92 | 1016.0 |
| 20260508045014 | 45 | 0 | 0.0 | 0.0 | 0.00 | 0.00 | 0.00 | 92 | 1016.0 |
| 20260508044530 | 45 | 0 | 0.0 | 0.0 | 0.00 | 0.00 | 0.00 | 92 | 1016.0 |
| 20260508044010 | 46 | 0 | 0.0 | 0.0 | 0.00 | 0.00 | 0.00 | 92 | 1016.0 |
| 20260508043511 | 46 | 0 | 0.0 | 0.0 | 0.00 | 0.00 | 0.00 | 92 | 1016.0 |
| 20260508043031 | 46 | 0 | 0.0 | 0.0 | 0.00 | 0.00 | 0.00 | 92 | 1015.9 |
| 20260508042513 | 46 | 0 | 0.0 | 0.0 | 0.00 | 0.00 | 0.00 | 92 | 1016.0 |
| 20260508042012 | 46 | 0 | 0.0 | 0.0 | 0.00 | 0.00 | 0.00 | 93 | 1016.0 |
| 20260508041528 | 46 | 0 | 0.0 | 0.0 | 0.00 | 0.00 | 0.00 | 93 | 1015.9 |
| 20260508041012 | 46 | 0 | 0.0 | 0.0 | 0.00 | 0.00 | 0.00 | 93 | 1015.9 |
| 20260508040514 | 46 | 0 | 0.0 | 0.0 | 0.00 | 0.00 | 0.00 | 93 | 1015.7 |
| 20260508040034 | 46 | 0 | 0.0 | 0.0 | 0.00 | 0.00 | 0.00 | 93 | 1015.7 |
| 20260508035512 | 46 | 0 | 0.0 | 0.0 | 0.00 | 0.00 | 0.00 | 93 | 1015.8 |
| 20260508035011 | 45 | 0 | 0.0 | 0.0 | 0.00 | 0.00 | 0.00 | 93 | 1015.7 |
| 20260508034536 | 45 | 0 | 0.0 | 0.0 | 0.00 | 0.00 | 0.00 | 93 | 1015.8 |
| 20260508034011 | 45 | 0 | 0.0 | 0.0 | 0.00 | 0.00 | 0.00 | 93 | 1015.8 |
| 20260508033511 | 45 | 0 | 0.0 | 0.0 | 0.00 | 0.00 | 0.00 | 92 | 1015.8 |
| 20260508033028 | 45 | 0 | 0.0 | 0.0 | 0.00 | 0.00 | 0.00 | 92 | 1015.7 |
| 20260508032511 | 45 | 0 | 0.0 | 0.0 | 0.00 | 0.00 | 0.00 | 92 | 1015.7 |
| 20260508032011 | 45 | 0 | 0.0 | 0.0 | 0.00 | 0.00 | 0.00 | 92 | 1015.8 |
| 20260508031530 | 45 | 0 | 0.0 | 0.0 | 0.00 | 0.00 | 0.00 | 92 | 1015.7 |
| 20260508031011 | 45 | 0 | 0.0 | 0.0 | 0.00 | 0.00 | 0.00 | 91 | 1015.7 |
| 20260508030509 | 45 | 0 | 0.0 | 0.0 | 0.00 | 0.00 | 0.00 | 91 | 1015.9 |
| 20260508030030 | 45 | 0 | 0.0 | 0.0 | 0.00 | 0.00 | 0.00 | 91 | 1015.9 |
| 20260508025514 | 45 | 0 | 0.0 | 0.0 | 0.00 | 0.00 | 0.00 | 91 | 1015.8 |
| 20260508025008 | 45 | 0 | 0.0 | 0.0 | 0.00 | 0.00 | 0.00 | 91 | 1015.8 |
| 20260508024529 | 45 | 0 | 0.0 | 0.0 | 0.00 | 0.00 | 0.00 | 90 | 1015.9 |
| 20260508024009 | 46 | 0 | 0.0 | 0.0 | 0.00 | 0.00 | 0.00 | 90 | 1015.8 |
| 20260508023510 | 46 | 0 | 0.0 | 0.0 | 0.00 | 0.00 | 0.00 | 90 | 1015.9 |
| 20260508023037 | 46 | 0 | 0.0 | 0.0 | 0.00 | 0.00 | 0.00 | 90 | 1015.9 |
| 20260508022511 | 46 | 0 | 0.0 | 0.0 | 0.00 | 0.00 | 0.00 | 90 | 1015.8 |
| 20260508022015 | 46 | 0 | 0.0 | 0.0 | 0.00 | 0.00 | 0.00 | 90 | 1015.8 |
| 20260508021530 | 46 | 0 | 0.0 | 0.0 | 0.00 | 0.00 | 0.00 | 90 | 1015.8 |
| 20260508021011 | 46 | 0 | 0.0 | 0.0 | 0.00 | 0.00 | 0.00 | 90 | 1015.8 |
| 20260508020511 | 46 | 0 | 0.0 | 0.0 | 0.00 | 0.00 | 0.00 | 90 | 1015.7 |
| 20260508020027 | 47 | 0 | 0.0 | 0.0 | 0.00 | 0.00 | 0.00 | 90 | 1015.7 |
| 20260508015512 | 47 | 0 | 0.0 | 0.0 | 0.00 | 0.00 | 0.00 | 90 | 1015.8 |
| 20260508015011 | 47 | 0 | 0.0 | 0.0 | 0.00 | 0.00 | 0.00 | 89 | 1015.8 |
| 20260508014530 | 47 | 0 | 0.0 | 0.0 | 0.00 | 0.00 | 0.00 | 89 | 1015.8 |
| 20260508014010 | 47 | 0 | 0.0 | 0.0 | 0.00 | 0.00 | 0.00 | 89 | 1015.7 |
| 20260508013513 | 47 | 0 | 0.0 | 0.0 | 0.00 | 0.00 | 0.00 | 89 | 1015.7 |
| 20260508013029 | 47 | 0 | 0.0 | 0.0 | 0.00 | 0.00 | 0.00 | 89 | 1015.6 |
| 20260508012512 | 48 | 0 | 0.0 | 0.0 | 0.00 | 0.00 | 0.00 | 89 | 1015.6 |
| 20260508012012 | 48 | 0 | 0.0 | 0.0 | 0.00 | 0.00 | 0.00 | 89 | 1015.5 |
| 20260508011536 | 48 | 0 | 0.0 | 0.0 | 0.00 | 0.00 | 0.00 | 89 | 1015.5 |
| 20260508011015 | 48 | 0 | 0.0 | 0.0 | 0.00 | 0.00 | 0.00 | 89 | 1015.5 |
| 20260508010512 | 48 | 0 | 0.0 | 0.0 | 0.00 | 0.00 | 0.00 | 88 | 1015.5 |
| 20260508010030 | 48 | 0 | 0.0 | 0.0 | 0.00 | 0.00 | 0.00 | 88 | 1015.6 |
| 20260508005511 | 49 | 0 | 0.0 | 0.0 | 0.00 | 0.00 | 0.00 | 88 | 1015.6 |
| 20260508005012 | 49 | 0 | 0.0 | 0.0 | 0.00 | 0.00 | 0.00 | 88 | 1015.6 |
| 20260508004532 | 49 | 0 | 0.0 | 0.0 | 0.00 | 0.00 | 0.00 | 88 | 1015.7 |
| 20260508004013 | 49 | 0 | 0.0 | 0.0 | 0.00 | 0.00 | 0.00 | 88 | 1015.8 |
| 20260508003517 | 49 | 0 | 0.0 | 0.0 | 0.00 | 0.00 | 0.00 | 88 | 1015.7 |
| 20260508003028 | 49 | 0 | 0.0 | 0.0 | 0.00 | 0.00 | 0.00 | 87 | 1015.8 |
| 20260508002508 | 49 | 0 | 0.0 | 0.0 | 0.00 | 0.00 | 0.00 | 87 | 1015.7 |
| 20260508002013 | 49 | 0 | 0.0 | 0.0 | 0.00 | 0.00 | 0.00 | 88 | 1015.8 |
| 20260508001543 | 49 | 0 | 0.0 | 0.0 | 0.00 | 0.00 | 0.00 | 87 | 1015.7 |
| 20260508001012 | 49 | 0 | 0.0 | 0.0 | 0.00 | 0.00 | 0.00 | 88 | 1015.8 |
| 20260508000514 | 49 | 0 | 0.0 | 0.0 | 0.00 | 0.00 | 0.00 | 88 | 1015.8 |
| 20260508000031 | 49 | 0 | 0.0 | 0.0 | 0.00 | 0.00 | 0.00 | 88 | 1015.9 |
| 20260507235510 | 49 | 0 | 0.0 | 0.0 | 0.00 | 0.00 | 0.00 | 88 | 1015.8 |
| 20260507235015 | 49 | 0 | 0.0 | 0.0 | 0.00 | 0.00 | 0.00 | 88 | 1015.9 |
| 20260507234527 | 49 | 0 | 0.0 | 0.0 | 0.00 | 0.00 | 0.00 | 88 | 1015.9 |
| 20260507234011 | 49 | 0 | 0.0 | 0.0 | 0.00 | 0.00 | 0.00 | 88 | 1015.9 |
| 20260507233513 | 49 | 0 | 0.0 | 0.0 | 0.00 | 0.00 | 0.00 | 88 | 1015.8 |
| 20260507233034 | 49 | 0 | 0.0 | 0.0 | 0.00 | 0.00 | 0.00 | 88 | 1015.8 |
| 20260507232508 | 49 | 0 | 0.0 | 0.0 | 0.00 | 0.00 | 0.00 | 88 | 1015.8 |
| 20260507232011 | 49 | 0 | 0.0 | 0.0 | 0.00 | 0.00 | 0.00 | 87 | 1015.8 |
| 20260507231527 | 50 | 0 | 0.0 | 0.0 | 0.00 | 0.00 | 0.00 | 87 | 1015.7 |
| 20260507231011 | 50 | 0 | 0.0 | 0.0 | 0.00 | 0.00 | 0.00 | 87 | 1015.8 |
| 20260507230513 | 50 | 0 | 0.0 | 0.0 | 0.00 | 0.00 | 0.00 | 87 | 1015.8 |
| 20260507230032 | 50 | 0 | 0.0 | 0.0 | 0.00 | 0.00 | 0.00 | 87 | 1015.7 |
| 20260507225512 | 50 | 0 | 0.0 | 0.0 | 0.00 | 0.00 | 0.00 | 87 | 1015.7 |
| 20260507225012 | 50 | 0 | 0.0 | 0.0 | 0.00 | 0.00 | 0.00 | 87 | 1015.7 |
| 20260507224533 | 50 | 0 | 0.0 | 0.0 | 0.00 | 0.00 | 0.00 | 86 | 1015.7 |
| 20260507224012 | 50 | 0 | 0.0 | 0.0 | 0.00 | 0.00 | 0.00 | 86 | 1015.8 |
| 20260507223515 | 50 | 0 | 0.0 | 0.0 | 0.00 | 0.00 | 0.00 | 86 | 1015.8 |
| 20260507223029 | 50 | 0 | 0.0 | 0.0 | 0.00 | 0.00 | 0.00 | 86 | 1015.9 |
| 20260507222512 | 50 | 0 | 0.0 | 0.0 | 0.00 | 0.00 | 0.00 | 86 | 1015.8 |
| 20260507222011 | 50 | 0 | 0.0 | 0.0 | 0.00 | 0.00 | 0.00 | 86 | 1015.8 |
| 20260507221528 | 50 | 0 | 0.0 | 0.0 | 0.00 | 0.00 | 0.00 | 86 | 1015.9 |
| 20260507221010 | 50 | 0 | 0.0 | 0.0 | 0.00 | 0.00 | 0.00 | 85 | 1015.8 |
| 20260507220511 | 51 | 0 | 0.0 | 0.0 | 0.00 | 0.00 | 0.00 | 85 | 1015.7 |
| 20260507220028 | 51 | 0 | 0.0 | 0.0 | 0.00 | 0.00 | 0.00 | 84 | 1015.8 |
| 20260507215515 | 51 | 0 | 0.0 | 0.0 | 0.00 | 0.00 | 0.00 | 83 | 1015.7 |
| 20260507215020 | 51 | 0 | 0.0 | 0.0 | 0.00 | 0.00 | 0.00 | 83 | 1015.8 |
| 20260507214530 | 51 | 0 | 0.0 | 0.0 | 0.00 | 0.00 | 0.00 | 83 | 1015.8 |
| 20260507214014 | 51 | 0 | 0.0 | 0.0 | 0.00 | 0.00 | 0.00 | 82 | 1015.7 |
| 20260507213510 | 51 | 0 | 0.0 | 0.0 | 0.00 | 0.00 | 0.00 | 82 | 1015.8 |
| 20260507213035 | 51 | 0 | 0.0 | 0.0 | 0.00 | 0.00 | 0.00 | 82 | 1015.7 |
| 20260507212510 | 51 | 0 | 0.0 | 0.0 | 0.00 | 0.00 | 0.00 | 82 | 1015.8 |
| 20260507212017 | 51 | 0 | 0.0 | 0.0 | 0.00 | 0.00 | 0.00 | 82 | 1015.7 |
| 20260507211542 | 51 | 0 | 0.0 | 0.0 | 0.00 | 0.00 | 0.00 | 82 | 1015.7 |
| 20260507211015 | 52 | 0 | 0.0 | 0.0 | 0.00 | 0.00 | 0.00 | 81 | 1015.7 |
| 20260507210510 | 52 | 0 | 0.0 | 0.0 | 0.00 | 0.00 | 0.00 | 81 | 1015.7 |
| 20260507210033 | 52 | 0 | 0.0 | 0.0 | 0.00 | 0.00 | 0.00 | 81 | 1015.7 |
| 20260507205510 | 52 | 0 | 0.0 | 0.0 | 0.00 | 0.00 | 0.00 | 81 | 1015.7 |
| 20260507205011 | 52 | 0 | 0.0 | 0.0 | 0.00 | 0.00 | 0.00 | 80 | 1015.6 |
| 20260507204530 | 52 | 0 | 0.0 | 0.0 | 0.00 | 0.00 | 0.00 | 80 | 1015.7 |
| 20260507204011 | 52 | 0 | 0.0 | 0.0 | 0.00 | 0.00 | 0.00 | 80 | 1015.6 |
| 20260507203512 | 52 | 0 | 0.0 | 0.0 | 0.00 | 0.00 | 0.00 | 80 | 1015.6 |
| 20260507203028 | 52 | 0 | 0.0 | 0.0 | 0.00 | 0.00 | 0.00 | 79 | 1015.5 |
| 20260507202511 | 53 | 0 | 0.0 | 0.0 | 0.00 | 0.00 | 0.00 | 79 | 1015.5 |
| 20260507202012 | 53 | 0 | 0.0 | 1.7 | 0.00 | 0.00 | 0.00 | 79 | 1015.4 |
| 20260507201536 | 53 | 0 | 0.0 | 1.7 | 0.00 | 0.00 | 0.00 | 78 | 1015.4 |
| 20260507201008 | 53 | 0 | 0.0 | 1.7 | 0.00 | 0.00 | 0.00 | 77 | 1015.3 |
| 20260507200509 | 53 | 222 | 0.0 | 2.6 | 0.00 | 0.00 | 0.00 | 77 | 1015.3 |
| 20260507200037 | 53 | 0 | 0.0 | 2.6 | 0.00 | 0.00 | 0.00 | 77 | 1015.2 |
| 20260507195509 | 53 | 222 | 0.9 | 2.6 | 0.00 | 0.00 | 0.00 | 76 | 1015.1 |
| 20260507195011 | 53 | 234 | 0.9 | 3.5 | 0.00 | 0.00 | 0.00 | 76 | 1015.1 |
| 20260507194528 | 53 | 185 | 0.9 | 3.5 | 0.00 | 0.00 | 0.00 | 76 | 1015.1 |
| 20260507194011 | 53 | 184 | 1.7 | 3.5 | 0.00 | 0.00 | 0.00 | 76 | 1015.0 |
| 20260507193511 | 53 | 187 | 0.9 | 3.5 | 0.00 | 0.00 | 0.00 | 76 | 1015.0 |
| 20260507193029 | 53 | 249 | 1.7 | 3.5 | 0.00 | 0.00 | 0.00 | 76 | 1015.1 |
| 20260507192514 | 53 | 228 | 0.9 | 2.6 | 0.00 | 0.00 | 0.00 | 76 | 1015.1 |
| 20260507192013 | 54 | 229 | 0.0 | 2.6 | 0.00 | 0.00 | 0.00 | 76 | 1015.0 |
| 20260507191528 | 54 | 0 | 0.0 | 0.0 | 0.00 | 0.00 | 0.00 | 75 | 1015.1 |
| 20260507191009 | 54 | 0 | 0.0 | 0.0 | 0.00 | 0.00 | 0.00 | 75 | 1015.0 |
| 20260507190512 | 54 | 0 | 0.0 | 0.0 | 0.00 | 0.00 | 0.00 | 75 | 1015.0 |
| 20260507190029 | 54 | 0 | 0.0 | 3.5 | 0.00 | 0.00 | 0.00 | 74 | 1014.9 |
| 20260507185511 | 54 | 0 | 0.0 | 4.3 | 0.00 | 0.00 | 0.00 | 73 | 1014.9 |
| 20260507185015 | 54 | 223 | 1.7 | 5.2 | 0.00 | 0.00 | 0.00 | 73 | 1014.9 |
| 20260507184533 | 54 | 219 | 1.7 | 6.1 | 0.00 | 0.00 | 0.00 | 72 | 1014.9 |
| 20260507184012 | 54 | 209 | 1.7 | 6.1 | 0.00 | 0.00 | 0.00 | 72 | 1014.9 |
| 20260507183512 | 55 | 233 | 1.7 | 5.2 | 0.00 | 0.00 | 0.00 | 71 | 1014.9 |
| 20260507183033 | 55 | 217 | 1.7 | 5.2 | 0.00 | 0.00 | 0.00 | 70 | 1014.8 |
| 20260507182512 | 55 | 237 | 1.7 | 5.2 | 0.00 | 0.00 | 0.00 | 70 | 1014.8 |
| 20260507182013 | 55 | 246 | 1.7 | 5.2 | 0.00 | 0.00 | 0.00 | 69 | 1014.9 |
| 20260507181529 | 55 | 197 | 1.7 | 4.3 | 0.00 | 0.00 | 0.00 | 69 | 1014.7 |
| 20260507181011 | 55 | 221 | 1.7 | 5.2 | 0.00 | 0.00 | 0.00 | 68 | 1014.7 |
| 20260507180514 | 56 | 211 | 1.7 | 5.2 | 0.00 | 0.00 | 0.00 | 68 | 1014.6 |
| 20260507180040 | 56 | 236 | 1.7 | 6.1 | 0.00 | 0.00 | 0.00 | 67 | 1014.7 |
| 20260507175511 | 56 | 360 | 2.6 | 6.1 | 0.00 | 0.00 | 0.00 | 66 | 1014.6 |
| 20260507175011 | 56 | 245 | 1.7 | 4.3 | 0.00 | 0.00 | 0.00 | 66 | 1014.6 |
| 20260507174533 | 56 | 242 | 1.7 | 4.3 | 0.00 | 0.00 | 0.00 | 66 | 1014.6 |
| 20260507174011 | 56 | 236 | 1.7 | 3.5 | 0.00 | 0.00 | 0.00 | 66 | 1014.6 |
| 20260507173514 | 57 | 232 | 1.7 | 4.3 | 0.00 | 0.00 | 0.00 | 64 | 1014.5 |
| 20260507173031 | 57 | 237 | 0.9 | 6.1 | 0.00 | 0.00 | 0.00 | 64 | 1014.6 |
| 20260507172511 | 57 | 167 | 2.6 | 6.1 | 0.00 | 0.00 | 0.00 | 63 | 1014.6 |
| 20260507172013 | 57 | 240 | 2.6 | 6.1 | 0.00 | 0.00 | 0.00 | 62 | 1014.5 |
| 20260507171528 | 58 | 225 | 3.5 | 6.1 | 0.00 | 0.00 | 0.00 | 61 | 1014.6 |
| 20260507171014 | 58 | 209 | 2.6 | 6.1 | 0.00 | 0.00 | 0.00 | 61 | 1014.5 |
| 20260507170509 | 58 | 258 | 2.6 | 6.1 | 0.00 | 0.00 | 0.00 | 60 | 1014.6 |
| 20260507170044 | 58 | 187 | 1.7 | 6.1 | 0.00 | 0.00 | 0.00 | 59 | 1014.5 |
| 20260507165508 | 58 | 215 | 2.6 | 6.1 | 0.00 | 0.00 | 0.00 | 59 | 1014.7 |
| 20260507165011 | 58 | 191 | 2.6 | 6.1 | 0.00 | 0.00 | 0.00 | 59 | 1014.6 |
| 20260507164530 | 58 | 240 | 2.6 | 6.1 | 0.00 | 0.00 | 0.00 | 59 | 1014.6 |
| 20260507164012 | 58 | 216 | 2.6 | 6.1 | 0.00 | 0.00 | 0.00 | 59 | 1014.6 |
| 20260507163512 | 58 | 195 | 2.6 | 4.3 | 0.00 | 0.00 | 0.00 | 58 | 1014.6 |
| 20260507163028 | 58 | 206 | 1.7 | 7.0 | 0.00 | 0.00 | 0.00 | 59 | 1014.6 |
| 20260507162511 | 58 | 195 | 1.7 | 7.0 | 0.00 | 0.00 | 0.00 | 57 | 1014.6 |
| 20260507162013 | 59 | 244 | 3.5 | 6.1 | 0.00 | 0.00 | 0.00 | 57 | 1014.6 |
| 20260507161529 | 59 | 196 | 2.6 | 6.1 | 0.00 | 0.00 | 0.00 | 57 | 1014.6 |
| 20260507161011 | 59 | 225 | 2.6 | 7.8 | 0.00 | 0.00 | 0.00 | 57 | 1014.6 |
| 20260507160512 | 59 | 175 | 2.6 | 7.8 | 0.00 | 0.00 | 0.00 | 57 | 1014.7 |
| 20260507160032 | 59 | 223 | 2.6 | 6.1 | 0.00 | 0.00 | 0.00 | 55 | 1014.7 |
| 20260507155511 | 59 | 200 | 3.5 | 7.0 | 0.00 | 0.00 | 0.00 | 55 | 1014.7 |
| 20260507155009 | 60 | 0 | 1.7 | 7.0 | 0.00 | 0.00 | 0.00 | 54 | 1014.8 |
| 20260507154530 | 60 | 244 | 1.7 | 5.2 | 0.00 | 0.00 | 0.00 | 54 | 1014.7 |
| 20260507154012 | 60 | 113 | 1.7 | 5.2 | 0.00 | 0.00 | 0.00 | 55 | 1014.6 |
| 20260507153512 | 61 | 223 | 0.9 | 7.8 | 0.00 | 0.00 | 0.00 | 54 | 1014.7 |
| 20260507153027 | 61 | 130 | 1.7 | 7.8 | 0.00 | 0.00 | 0.00 | 54 | 1014.9 |
| 20260507152512 | 61 | 219 | 2.6 | 6.1 | 0.00 | 0.00 | 0.00 | 52 | 1014.9 |
| 20260507152011 | 62 | 113 | 1.7 | 6.1 | 0.00 | 0.00 | 0.00 | 53 | 1014.9 |
| 20260507151529 | 62 | 194 | 2.6 | 6.1 | 0.00 | 0.00 | 0.00 | 53 | 1015.0 |
| 20260507151013 | 62 | 0 | 0.9 | 5.2 | 0.00 | 0.00 | 0.00 | 54 | 1014.9 |
| 20260507150513 | 62 | 120 | 0.0 | 5.2 | 0.00 | 0.00 | 0.00 | 55 | 1014.9 |
| 20260507150030 | 61 | 119 | 2.6 | 6.1 | 0.00 | 0.00 | 0.00 | 54 | 1014.9 |
| 20260507145511 | 61 | 173 | 0.9 | 7.0 | 0.00 | 0.00 | 0.00 | 51 | 1015.0 |
| 20260507145008 | 61 | 113 | 2.6 | 7.0 | 0.00 | 0.00 | 0.00 | 56 | 1014.9 |
| 20260507144530 | 60 | 110 | 1.7 | 3.5 | 0.00 | 0.00 | 0.00 | 59 | 1014.9 |
| 20260507144010 | 60 | 112 | 0.9 | 3.5 | 0.00 | 0.00 | 0.00 | 55 | 1014.9 |
| 20260507143510 | 61 | 0 | 0.0 | 5.2 | 0.00 | 0.00 | 0.00 | 52 | 1015.0 |
| 20260507143030 | 61 | 112 | 0.9 | 5.2 | 0.00 | 0.00 | 0.00 | 54 | 1015.1 |
| 20260507142511 | 61 | 115 | 1.7 | 5.2 | 0.00 | 0.00 | 0.00 | 55 | 1015.0 |
| 20260507142012 | 61 | 167 | 0.9 | 4.3 | 0.00 | 0.00 | 0.00 | 54 | 1015.2 |
| 20260507141528 | 61 | 142 | 0.9 | 4.3 | 0.00 | 0.00 | 0.00 | 53 | 1015.2 |
| 20260507141010 | 61 | 128 | 0.9 | 5.2 | 0.00 | 0.00 | 0.00 | 54 | 1015.2 |
| 20260507140511 | 61 | 114 | 0.9 | 5.2 | 0.00 | 0.00 | 0.00 | 57 | 1015.2 |
| 20260507140035 | 62 | 78 | 1.7 | 4.3 | 0.00 | 0.00 | 0.00 | 55 | 1015.2 |
| 20260507135511 | 62 | 175 | 0.0 | 2.6 | 0.00 | 0.00 | 0.00 | 53 | 1015.2 |
| 20260507135011 | 62 | 0 | 0.0 | 3.5 | 0.00 | 0.00 | 0.00 | 53 | 1015.3 |
| 20260507134530 | 63 | 202 | 0.9 | 3.5 | 0.00 | 0.00 | 0.00 | 52 | 1015.5 |
| 20260507134007 | 63 | 0 | 0.0 | 4.3 | 0.00 | 0.00 | 0.00 | 56 | 1015.4 |
| 20260507133509 | 63 | 0 | 0.0 | 5.2 | 0.00 | 0.00 | 0.00 | 50 | 1015.3 |
| 20260507133029 | 63 | 127 | 0.9 | 5.2 | 0.00 | 0.00 | 0.00 | 56 | 1015.4 |
| 20260507132510 | 63 | 188 | 1.7 | 6.1 | 0.00 | 0.00 | 0.00 | 53 | 1015.4 |
| 20260507132010 | 62 | 111 | 1.7 | 6.1 | 0.00 | 0.00 | 0.00 | 56 | 1015.5 |
| 20260507131532 | 62 | 134 | 0.9 | 6.1 | 0.00 | 0.00 | 0.00 | 55 | 1015.5 |
| 20260507131011 | 62 | 149 | 0.0 | 3.5 | 0.00 | 0.00 | 0.00 | 56 | 1015.5 |
| 20260507130514 | 62 | 0 | 0.0 | 3.5 | 0.00 | 0.00 | 0.00 | 54 | 1015.5 |
| 20260507130033 | 62 | 109 | 1.7 | 4.3 | 0.00 | 0.00 | 0.00 | 55 | 1015.7 |
| 20260507125512 | 62 | 120 | 0.9 | 7.0 | 0.00 | 0.00 | 0.00 | 54 | 1015.7 |
| 20260507125011 | 63 | 193 | 2.6 | 8.7 | 0.00 | 0.00 | 0.00 | 57 | 1015.7 |
| 20260507124529 | 63 | 190 | 2.6 | 8.7 | 0.00 | 0.00 | 0.00 | 57 | 1015.7 |
| 20260507124008 | 63 | 81 | 2.6 | 7.8 | 0.00 | 0.00 | 0.00 | 57 | 1015.6 |
| 20260507123509 | 63 | 144 | 2.6 | 7.0 | 0.00 | 0.00 | 0.00 | 57 | 1015.7 |
| 20260507123032 | 63 | 111 | 2.6 | 7.0 | 0.00 | 0.00 | 0.00 | 54 | 1015.8 |
| 20260507122509 | 63 | 0 | 0.9 | 7.8 | 0.00 | 0.00 | 0.00 | 54 | 1015.7 |
| 20260507122013 | 63 | 154 | 1.7 | 7.8 | 0.00 | 0.00 | 0.00 | 57 | 1015.8 |
| 20260507121533 | 62 | 126 | 3.5 | 7.8 | 0.00 | 0.00 | 0.00 | 58 | 1015.9 |
| 20260507121011 | 62 | 0 | 0.9 | 6.1 | 0.00 | 0.00 | 0.00 | 58 | 1015.8 |
| 20260507120510 | 62 | 214 | 1.7 | 9.6 | 0.00 | 0.00 | 0.00 | 62 | 1015.9 |
| 20260507120029 | 62 | 98 | 1.7 | 9.6 | 0.00 | 0.00 | 0.00 | 63 | 1015.9 |
| 20260507115514 | 62 | 156 | 0.9 | 4.3 | 0.00 | 0.00 | 0.00 | 59 | 1015.8 |
| 20260507115012 | 61 | 147 | 1.7 | 7.8 | 0.00 | 0.00 | 0.00 | 67 | 1015.8 |
| 20260507114528 | 61 | 113 | 1.7 | 7.8 | 0.00 | 0.00 | 0.00 | 67 | 1015.6 |
| 20260507114011 | 61 | 73 | 1.7 | 7.8 | 0.00 | 0.00 | 0.00 | 69 | 1015.7 |
| 20260507113511 | 61 | 123 | 1.7 | 7.0 | 0.00 | 0.00 | 0.00 | 72 | 1015.8 |
| 20260507113029 | 60 | 69 | 2.6 | 7.0 | 0.00 | 0.00 | 0.00 | 73 | 1015.9 |
| 20260507112513 | 59 | 113 | 2.6 | 5.2 | 0.00 | 0.00 | 0.00 | 75 | 1016.1 |
| 20260507112013 | 58 | 0 | 0.9 | 3.5 | 0.00 | 0.00 | 0.00 | 71 | 1016.1 |
| 20260507111530 | 57 | 17 | 0.9 | 3.5 | 0.00 | 0.00 | 0.00 | 74 | 1016.1 |
| 20260507111009 | 57 | 0 | 1.7 | 5.2 | 0.00 | 0.00 | 0.00 | 72 | 1016.2 |
| 20260507110510 | 56 | 192 | 0.9 | 5.2 | 0.00 | 0.00 | 0.00 | 74 | 1016.2 |
| 20260507110030 | 56 | 242 | 0.9 | 4.3 | 0.00 | 0.00 | 0.00 | 73 | 1016.2 |
| 20260507105510 | 56 | 0 | 0.9 | 4.3 | 0.00 | 0.00 | 0.00 | 74 | 1016.2 |
| 20260507105012 | 56 | 222 | 2.6 | 4.3 | 0.00 | 0.00 | 0.00 | 73 | 1016.2 |
| 20260507104527 | 55 | 119 | 1.7 | 2.6 | 0.00 | 0.00 | 0.00 | 74 | 1016.2 |
| 20260507104014 | 55 | 0 | 0.0 | 3.5 | 0.00 | 0.00 | 0.00 | 75 | 1016.4 |
| 20260507103512 | 55 | 0 | 0.0 | 3.5 | 0.00 | 0.00 | 0.00 | 76 | 1016.4 |
| 20260507103036 | 54 | 164 | 0.9 | 3.5 | 0.00 | 0.00 | 0.00 | 77 | 1016.4 |
| 20260507102513 | 54 | 182 | 0.9 | 3.5 | 0.00 | 0.00 | 0.00 | 77 | 1016.5 |
| 20260507102013 | 54 | 145 | 1.7 | 3.5 | 0.00 | 0.00 | 0.00 | 77 | 1016.5 |
| 20260507101530 | 53 | 204 | 1.7 | 3.5 | 0.00 | 0.00 | 0.00 | 77 | 1016.5 |
| 20260507101012 | 53 | 121 | 0.9 | 3.5 | 0.00 | 0.00 | 0.00 | 78 | 1016.5 |
| 20260507100512 | 52 | 0 | 0.9 | 5.2 | 0.00 | 0.00 | 0.00 | 78 | 1016.5 |
| 20260507100031 | 52 | 118 | 1.7 | 5.2 | 0.00 | 0.00 | 0.00 | 80 | 1016.5 |
| 20260507095513 | 52 | 129 | 0.9 | 3.5 | 0.00 | 0.00 | 0.00 | 80 | 1016.5 |
| 20260507095013 | 51 | 132 | 0.0 | 5.2 | 0.00 | 0.00 | 0.00 | 83 | 1016.6 |
| 20260507094532 | 51 | 126 | 1.7 | 5.2 | 0.00 | 0.00 | 0.00 | 84 | 1016.5 |
| 20260507094012 | 50 | 159 | 0.9 | 3.5 | 0.00 | 0.00 | 0.00 | 85 | 1016.5 |
| 20260507093515 | 50 | 0 | 0.0 | 3.5 | 0.00 | 0.00 | 0.00 | 86 | 1016.5 |
| 20260507093028 | 50 | 115 | 0.9 | 3.5 | 0.00 | 0.00 | 0.00 | 86 | 1016.5 |
| 20260507092513 | 49 | 0 | 0.0 | 3.5 | 0.00 | 0.00 | 0.00 | 87 | 1016.5 |
| 20260507092015 | 49 | 130 | 0.9 | 3.5 | 0.00 | 0.00 | 0.00 | 87 | 1016.5 |
| 20260507091538 | 49 | 105 | 0.9 | 3.5 | 0.00 | 0.00 | 0.00 | 89 | 1016.5 |
| 20260507091012 | 49 | 115 | 1.7 | 3.5 | 0.00 | 0.00 | 0.00 | 90 | 1016.5 |
| 20260507090512 | 48 | 113 | 0.0 | 3.5 | 0.00 | 0.00 | 0.00 | 89 | 1016.5 |
| 20260507090034 | 48 | 0 | 0.9 | 5.2 | 0.00 | 0.00 | 0.00 | 90 | 1016.5 |
| 20260507085513 | 48 | 106 | 1.7 | 5.2 | 0.00 | 0.00 | 0.00 | 90 | 1016.6 |
| 20260507085017 | 48 | 85 | 1.7 | 4.3 | 0.00 | 0.00 | 0.00 | 90 | 1016.6 |
| 20260507084540 | 47 | 101 | 1.7 | 5.2 | 0.00 | 0.00 | 0.00 | 91 | 1016.7 |
| 20260507084014 | 47 | 103 | 1.7 | 6.1 | 0.00 | 0.00 | 0.00 | 91 | 1016.5 |
| 20260507083517 | 47 | 119 | 1.7 | 6.1 | 0.00 | 0.00 | 0.00 | 91 | 1016.6 |
| 20260507083030 | 47 | 103 | 1.7 | 6.1 | 0.00 | 0.00 | 0.00 | 90 | 1016.5 |
| 20260507082512 | 47 | 134 | 1.7 | 6.1 | 0.00 | 0.00 | 0.00 | 91 | 1016.6 |
| 20260507082012 | 47 | 108 | 2.6 | 6.1 | 0.00 | 0.00 | 0.00 | 92 | 1016.6 |
| 20260507081621 | 47 | 107 | 1.7 | 5.2 | 0.00 | 0.00 | 0.00 | 93 | 1016.6 |
| 20260507081013 | 46 | 136 | 0.9 | 5.2 | 0.00 | 0.00 | 0.00 | 93 | 1016.5 |
| 20260507080510 | 46 | 90 | 0.9 | 5.2 | 0.00 | 0.00 | 0.00 | 94 | 1016.5 |
| 20260507080030 | 46 | 126 | 1.7 | 3.5 | 0.00 | 0.00 | 0.00 | 94 | 1016.4 |
| 20260507075510 | 46 | 114 | 1.7 | 3.5 | 0.00 | 0.00 | 0.00 | 94 | 1016.5 |
| 20260507075011 | 45 | 103 | 0.9 | 3.5 | 0.00 | 0.00 | 0.00 | 94 | 1016.4 |
| 20260507074528 | 45 | 114 | 0.0 | 3.5 | 0.00 | 0.00 | 0.00 | 95 | 1016.5 |
| 20260507074010 | 45 | 121 | 0.9 | 5.2 | 0.00 | 0.00 | 0.00 | 95 | 1016.5 |
| 20260507073513 | 45 | 90 | 0.9 | 5.2 | 0.00 | 0.00 | 0.00 | 95 | 1016.5 |
| 20260507073030 | 45 | 114 | 0.0 | 5.2 | 0.00 | 0.00 | 0.00 | 96 | 1016.5 |
| 20260507072511 | 44 | 0 | 0.9 | 6.1 | 0.00 | 0.00 | 0.00 | 96 | 1016.4 |
| 20260507072012 | 44 | 0 | 1.7 | 6.1 | 0.00 | 0.00 | 0.00 | 96 | 1016.3 |
| 20260507071530 | 44 | 109 | 1.7 | 5.2 | 0.00 | 0.00 | 0.00 | 96 | 1016.4 |
| 20260507071010 | 44 | 117 | 2.6 | 5.2 | 0.00 | 0.00 | 0.00 | 96 | 1016.4 |
| 20260507070512 | 44 | 108 | 1.7 | 5.2 | 0.00 | 0.00 | 0.00 | 96 | 1016.3 |
| 20260507070039 | 43 | 90 | 1.7 | 5.2 | 0.00 | 0.00 | 0.00 | 97 | 1016.3 |
| 20260507065510 | 43 | 97 | 2.6 | 5.2 | 0.00 | 0.00 | 0.00 | 97 | 1016.4 |